23.04.2024;22:00;11
23.04.2024;21:00;10
23.04.2024;20:00;8
23.04.2024;19:00;7
23.04.2024;18:00;7
23.04.2024;17:00;6
23.04.2024;16:00;5
23.04.2024;15:00;6
23.04.2024;14:00;4
23.04.2024;13:00;4
23.04.2024;12:00;9
23.04.2024;11:00;18
23.04.2024;10:00;19
23.04.2024;09:00;17
23.04.2024;08:00;13
23.04.2024;07:00;13
23.04.2024;06:00;10
23.04.2024;05:00;8
23.04.2024;04:00;8
23.04.2024;03:00;5
23.04.2024;02:00;4
23.04.2024;01:00;4
23.04.2024;00:00;5
22.04.2024;23:00;4
22.04.2024;22:00;7
22.04.2024;21:00;4
22.04.2024;20:00;5
22.04.2024;19:00;2
22.04.2024;18:00;6
22.04.2024;17:00;6
22.04.2024;16:00;3
22.04.2024;15:00;5
22.04.2024;14:00;6
22.04.2024;13:00;6
22.04.2024;12:00;11
22.04.2024;11:00;23
22.04.2024;10:00;18
22.04.2024;09:00;17
22.04.2024;08:00;14
22.04.2024;07:00;8
22.04.2024;06:00;8
22.04.2024;05:00;3
22.04.2024;04:00;2
22.04.2024;03:00;2
22.04.2024;02:00;2
22.04.2024;01:00;3
22.04.2024;00:00;2
21.04.2024;23:00;9
